Location: Rimouski
(48.4330°N, 68.5170°W)
Time: 16:57:35
(UTC-04:00)

Envisat - Pass Details

Date: 22 April 2019
Orbit: 764 x 766 km, 98.2° (Epoch: 26 May)

Event Time Altitude Azimuth Distance (km) Brightness Sun altitude
Rises 20:29:21 0° 215° (SW) 3,223 6.3 -9.0°
Reaches altitude 10° 20:32:40 10° 238° (WSW) 2,303 5.9 -9.4°
Maximum altitude 20:35:32 15° 273° (W) 1,979 6.1 -9.8°
Drops below altitude 10° 20:38:25 10° 307° (NW) 2,313 7.1 -10.2°
Sets 20:41:47 0° 331° (NNW) 3,245 7.5 -10.7°
